ASV105 RKSI-PGUM

Flight info

Callsign ASV105
Flight time 3h 45m
Altitude 33000
Route OSPOT2H OSPOT Y782 TGU Y781 BESNA Y209 IKE A582 HKC Y14 TGE G339 BIXAK DCT 25N136E 20N140E DCT NATSS G339 UNZ
Aircraft A321/M-SDE3FGHIRWY/LB1

Departure

Time 2026-04-20 18:10
Airport Incheon International Airport (RKSI)

Arrival

Time 2026-04-20 21:55
Airport Antonio B. Won Pat International Airport (PGUM)
Time Latitude Longitude Altitude Speed Heading
2026-04-20 17:49 37.45697 126.44532 30 ft 0 kts 145°
2026-04-20 18:00 37.45706 126.44524 32 ft 3 kts 144°
2026-04-20 18:00 37.45723 126.44509 29 ft 3 kts 144°
2026-04-20 18:01 37.45739 126.44494 31 ft 3 kts 144°
2026-04-20 18:01 37.45755 126.44481 31 ft 3 kts 164°
2026-04-20 18:01 37.45771 126.44480 30 ft 3 kts 219°
2026-04-20 18:01 37.45778 126.44490 32 ft 2 kts 234°
2026-04-20 18:02 37.45784 126.44501 32 ft 0 kts 234°
2026-04-20 18:04 37.45784 126.44500 32 ft 1 kts 234°
2026-04-20 18:04 37.45767 126.44471 31 ft 7 kts 233°
2026-04-20 18:04 37.45724 126.44402 32 ft 14 kts 231°
2026-04-20 18:04 37.45662 126.44284 30 ft 21 kts 237°
2026-04-20 18:05 37.45487 126.43975 32 ft 22 kts 234°
2026-04-20 18:05 37.45402 126.43827 31 ft 19 kts 234°
2026-04-20 18:05 37.45352 126.43703 32 ft 14 kts 281°
2026-04-20 18:06 37.45449 126.43603 31 ft 23 kts 324°
2026-04-20 18:06 37.45581 126.43485 32 ft 23 kts 324°
2026-04-20 18:06 37.45709 126.43371 32 ft 23 kts 325°
2026-04-20 18:06 37.45838 126.43257 32 ft 23 kts 324°
2026-04-20 18:07 37.45965 126.43141 31 ft 22 kts 324°
2026-04-20 18:07 37.46096 126.43026 32 ft 24 kts 326°
2026-04-20 18:07 37.46244 126.42896 32 ft 28 kts 324°
2026-04-20 18:07 37.46399 126.42756 31 ft 27 kts 324°
2026-04-20 18:08 37.46552 126.42620 30 ft 27 kts 324°
2026-04-20 18:08 37.46703 126.42486 31 ft 26 kts 324°
2026-04-20 18:08 37.46851 126.42355 32 ft 26 kts 325°
2026-04-20 18:08 37.46963 126.42250 32 ft 13 kts 306°
2026-04-20 18:09 37.46934 126.42152 32 ft 12 kts 231°
2026-04-20 18:09 37.46883 126.42059 31 ft 16 kts 236°
2026-04-20 18:09 37.46802 126.41986 32 ft 15 kts 166°
2026-04-20 18:09 37.46620 126.42142 34 ft 63 kts 145°
2026-04-20 18:10 37.46080 126.42625 31 ft 126 kts 144°
2026-04-20 18:10 37.45219 126.43390 34 ft 176 kts 145°
2026-04-20 18:10 37.44215 126.44300 781 ft 167 kts 146°
2026-04-20 18:10 37.43270 126.45187 1384 ft 178 kts 146°
2026-04-20 18:11 37.42257 126.46120 2034 ft 180 kts 146°
2026-04-20 18:11 37.41198 126.47011 2512 ft 187 kts 155°
2026-04-20 18:11 37.40026 126.47805 2842 ft 195 kts 156°
2026-04-20 18:11 37.38781 126.48601 3134 ft 206 kts 162°
2026-04-20 18:12 37.37326 126.49045 3241 ft 224 kts 174°
2026-04-20 18:12 37.35734 126.49472 3403 ft 243 kts 172°
2026-04-20 18:12 37.34008 126.49987 3505 ft 267 kts 171°
2026-04-20 18:12 37.32173 126.50576 3836 ft 282 kts 168°
2026-04-20 18:13 37.30350 126.51568 4394 ft 291 kts 147°
2026-04-20 18:13 37.28844 126.53294 5000 ft 295 kts 126°
2026-04-20 18:13 37.27856 126.55550 5573 ft 296 kts 105°
2026-04-20 18:13 37.27482 126.58077 6175 ft 294 kts 90°
2026-04-20 18:14 37.27302 126.60642 6788 ft 297 kts 90°
2026-04-20 18:14 37.27158 126.63243 7345 ft 298 kts 83°
2026-04-20 18:14 37.27288 126.65851 7899 ft 300 kts 80°
2026-04-20 18:14 37.27436 126.68484 8448 ft 304 kts 80°
2026-04-20 18:15 37.27583 126.71133 9128 ft 303 kts 80°
2026-04-20 18:15 37.27724 126.73747 9757 ft 304 kts 80°
2026-04-20 18:15 37.27867 126.76415 10273 ft 309 kts 80°
2026-04-20 18:15 37.28006 126.79133 10756 ft 314 kts 83°
2026-04-20 18:16 37.27903 126.81907 11240 ft 322 kts 94°
2026-04-20 18:16 37.27424 126.84679 11750 ft 328 kts 105°
2026-04-20 18:16 37.26578 126.87330 12234 ft 333 kts 117°
2026-04-20 18:16 37.25364 126.89824 12738 ft 336 kts 128°
2026-04-20 18:17 37.23822 126.92037 13237 ft 337 kts 140°
2026-04-20 18:17 37.21999 126.93894 13793 ft 336 kts 152°
2026-04-20 18:17 37.20001 126.95435 14342 ft 338 kts 154°
2026-04-20 18:17 37.17974 126.96969 14833 ft 341 kts 154°
2026-04-20 18:18 37.15929 126.98514 15262 ft 344 kts 155°
2026-04-20 18:18 37.13880 127.00017 15677 ft 347 kts 156°
2026-04-20 18:18 37.11772 127.01529 16106 ft 350 kts 157°
2026-04-20 18:18 37.09640 127.03043 16522 ft 353 kts 157°
2026-04-20 18:19 37.07491 127.04603 16956 ft 358 kts 156°
2026-04-20 18:19 37.05351 127.06224 17344 ft 361 kts 156°
2026-04-20 18:19 37.03201 127.07889 17768 ft 365 kts 156°
2026-04-20 18:19 37.01032 127.09580 18157 ft 368 kts 157°
2026-04-20 18:20 36.98879 127.11256 18539 ft 370 kts 158°
2026-04-20 18:20 36.96695 127.12996 18884 ft 375 kts 154°
2026-04-20 18:20 36.94604 127.15013 19244 ft 384 kts 147°
2026-04-20 18:20 36.92659 127.17359 19600 ft 392 kts 140°
2026-04-20 18:21 36.90897 127.20016 19943 ft 400 kts 132°
2026-04-20 18:21 36.89356 127.22952 20267 ft 407 kts 124°
2026-04-20 18:21 36.87960 127.25994 20592 ft 410 kts 126°
2026-04-20 18:21 36.86524 127.29093 20942 ft 413 kts 126°
2026-04-20 18:22 36.85046 127.32178 21248 ft 414 kts 131°
2026-04-20 18:22 36.83364 127.35087 21559 ft 411 kts 138°
2026-04-20 18:22 36.81488 127.37748 21873 ft 407 kts 145°
2026-04-20 18:22 36.79474 127.40226 22187 ft 408 kts 146°
2026-04-20 18:23 36.77438 127.42713 22482 ft 410 kts 147°
2026-04-20 18:23 36.75420 127.45186 22769 ft 413 kts 147°
2026-04-20 18:23 36.73364 127.47709 23065 ft 415 kts 147°
2026-04-20 18:23 36.71298 127.50244 23368 ft 417 kts 147°
2026-04-20 18:24 36.69220 127.52788 23679 ft 419 kts 147°
2026-04-20 18:24 36.67130 127.55341 23949 ft 421 kts 148°
2026-04-20 18:24 36.65031 127.57906 24199 ft 423 kts 147°
2026-04-20 18:24 36.63640 127.59608 24376 ft 425 kts 147°
2026-04-20 18:25 36.60825 127.63049 24696 ft 428 kts 147°
2026-04-20 18:25 36.58695 127.65648 24957 ft 429 kts 147°
2026-04-20 18:25 36.56555 127.68255 25210 ft 431 kts 147°
2026-04-20 18:25 36.55128 127.69990 25381 ft 432 kts 147°
2026-04-20 18:26 36.52973 127.72610 25602 ft 434 kts 147°
2026-04-20 18:26 36.50808 127.75247 25900 ft 434 kts 147°
2026-04-20 18:26 36.48650 127.77871 26178 ft 435 kts 147°
2026-04-20 18:26 36.46470 127.80519 26450 ft 437 kts 147°
2026-04-20 18:27 36.44287 127.83167 26685 ft 439 kts 147°
2026-04-20 18:27 36.42115 127.85798 26939 ft 441 kts 147°
2026-04-20 18:27 36.39914 127.88468 27162 ft 443 kts 147°
2026-04-20 18:27 36.37706 127.91147 27425 ft 444 kts 147°
2026-04-20 18:28 36.35491 127.93835 27646 ft 445 kts 146°
2026-04-20 18:28 36.33263 127.96532 27890 ft 446 kts 146°
2026-04-20 18:28 36.31039 127.99222 28166 ft 447 kts 146°
2026-04-20 18:28 36.28830 128.01888 28420 ft 448 kts 146°
2026-04-20 18:29 36.26598 128.04578 28658 ft 449 kts 146°
2026-04-20 18:29 36.24350 128.07283 28871 ft 451 kts 146°
2026-04-20 18:29 36.22089 128.09995 29098 ft 453 kts 146°
2026-04-20 18:29 36.19821 128.12718 29328 ft 454 kts 146°
2026-04-20 18:30 36.17546 128.15453 29550 ft 456 kts 146°
2026-04-20 18:30 36.15265 128.18198 29774 ft 458 kts 146°
2026-04-20 18:30 36.12997 128.20922 29963 ft 459 kts 146°
2026-04-20 18:30 36.10693 128.23682 30165 ft 461 kts 146°
2026-04-20 18:31 36.08379 128.26450 30321 ft 463 kts 146°
2026-04-20 18:31 36.06057 128.29225 30514 ft 465 kts 146°
2026-04-20 18:31 36.03729 128.32008 30677 ft 466 kts 146°
2026-04-20 18:31 36.01395 128.34797 30838 ft 467 kts 146°
2026-04-20 18:32 35.99054 128.37588 30959 ft 468 kts 146°
2026-04-20 18:32 35.96708 128.40380 31145 ft 469 kts 146°
2026-04-20 18:32 35.94355 128.43178 31308 ft 470 kts 146°
2026-04-20 18:32 35.91995 128.45985 31461 ft 471 kts 146°
2026-04-20 18:33 35.89661 128.48762 31619 ft 472 kts 146°
2026-04-20 18:33 35.87243 128.51490 31766 ft 467 kts 152°
2026-04-20 18:33 35.84628 128.53783 31919 ft 456 kts 161°
2026-04-20 18:33 35.81858 128.55580 32065 ft 444 kts 169°
2026-04-20 18:34 35.78999 128.56883 32220 ft 432 kts 177°
2026-04-20 18:34 35.76106 128.57729 32345 ft 422 kts 185°
2026-04-20 18:34 35.73225 128.58137 32488 ft 411 kts 191°
2026-04-20 18:34 35.70389 128.58129 32596 ft 401 kts 198°
2026-04-20 18:35 35.67649 128.57873 32744 ft 400 kts 198°
2026-04-20 18:35 35.64866 128.57612 32892 ft 401 kts 198°
2026-04-20 18:35 35.62074 128.57358 33066 ft 402 kts 198°
2026-04-20 18:35 35.59266 128.57106 33125 ft 406 kts 198°
2026-04-20 18:36 35.53543 128.56587 33120 ft 417 kts 197°
2026-04-20 18:36 35.50617 128.56552 33117 ft 433 kts 188°
2026-04-20 18:36 35.47550 128.57073 33118 ft 453 kts 179°
2026-04-20 18:37 35.44463 128.58224 33116 ft 474 kts 169°
2026-04-20 18:37 35.41424 128.59961 33114 ft 485 kts 165°
2026-04-20 18:37 35.35319 128.63609 33104 ft 495 kts 165°
2026-04-20 18:38 35.29061 128.67313 33054 ft 499 kts 165°
2026-04-20 18:38 35.22799 128.71022 33084 ft 500 kts 165°
2026-04-20 18:39 35.16533 128.74727 33088 ft 500 kts 165°
2026-04-20 18:39 35.10272 128.78421 33079 ft 500 kts 165°
2026-04-20 18:40 35.04025 128.82106 33089 ft 501 kts 165°
2026-04-20 18:40 34.97861 128.86237 33056 ft 510 kts 158°
2026-04-20 18:41 34.91824 128.90811 33076 ft 511 kts 158°
2026-04-20 18:41 34.85816 128.95348 33080 ft 511 kts 158°
2026-04-20 18:42 34.79746 128.99902 33083 ft 511 kts 158°
2026-04-20 18:42 34.73683 129.04450 33044 ft 511 kts 158°
2026-04-20 18:43 34.67625 129.08988 33055 ft 512 kts 158°
2026-04-20 18:43 34.61542 129.13541 33059 ft 512 kts 158°
2026-04-20 18:44 34.55519 129.18050 33087 ft 512 kts 158°
2026-04-20 18:44 34.49433 129.22590 33087 ft 512 kts 158°
2026-04-20 18:45 34.43391 129.27091 33075 ft 511 kts 158°
2026-04-20 18:45 34.37323 129.31597 33084 ft 511 kts 159°
2026-04-20 18:46 34.31251 129.36101 33073 ft 510 kts 159°
2026-04-20 18:46 34.25208 129.40582 33082 ft 509 kts 158°
2026-04-20 18:47 34.19163 129.45065 33039 ft 509 kts 158°
2026-04-20 18:47 34.13172 129.49499 33078 ft 507 kts 158°
2026-04-20 18:48 34.07139 129.53944 33080 ft 506 kts 158°
2026-04-20 18:48 34.01125 129.58360 33066 ft 505 kts 158°
2026-04-20 18:49 33.95151 129.62746 33077 ft 504 kts 158°
2026-04-20 18:49 33.89168 129.67141 33075 ft 504 kts 158°
2026-04-20 18:50 33.83179 129.71524 33072 ft 503 kts 158°
2026-04-20 18:50 33.77223 129.75873 33067 ft 502 kts 159°
2026-04-20 18:51 33.74160 129.77797 33045 ft 491 kts 167°
2026-04-20 18:51 33.70984 129.79220 33047 ft 482 kts 172°
2026-04-20 18:51 33.64614 129.81762 33010 ft 482 kts 172°
2026-04-20 18:52 33.58276 129.84299 33030 ft 482 kts 172°
2026-04-20 18:52 33.51894 129.86860 33041 ft 482 kts 172°
2026-04-20 18:53 33.45523 129.89412 33054 ft 482 kts 172°
2026-04-20 18:53 33.39186 129.91944 33035 ft 482 kts 171°
2026-04-20 18:54 33.32823 129.94477 33049 ft 481 kts 171°
2026-04-20 18:54 33.26467 129.97003 33046 ft 481 kts 171°
2026-04-20 18:55 33.20126 129.99530 33040 ft 480 kts 171°
2026-04-20 18:55 33.13817 130.02023 33018 ft 480 kts 171°
2026-04-20 18:56 33.07469 130.04514 33026 ft 479 kts 171°
2026-04-20 18:56 33.01129 130.07011 33048 ft 479 kts 171°
2026-04-20 18:57 32.94787 130.09501 33052 ft 479 kts 171°
2026-04-20 18:57 32.88453 130.11980 33027 ft 478 kts 171°
2026-04-20 18:58 32.82166 130.14439 33041 ft 478 kts 171°
2026-04-20 18:58 32.75841 130.16914 33048 ft 478 kts 171°
2026-04-20 18:59 32.69519 130.19385 33050 ft 478 kts 171°
2026-04-20 18:59 32.63198 130.21847 33040 ft 477 kts 171°
2026-04-20 19:00 32.56921 130.24287 33044 ft 477 kts 171°
2026-04-20 19:00 32.50605 130.26772 33023 ft 478 kts 170°
2026-04-20 19:01 32.44293 130.29277 33035 ft 478 kts 170°
2026-04-20 19:01 32.37973 130.31777 33020 ft 479 kts 170°
2026-04-20 19:02 32.31684 130.34255 33028 ft 479 kts 171°
2026-04-20 19:02 32.25344 130.36745 33034 ft 480 kts 170°
2026-04-20 19:03 32.18988 130.39232 33016 ft 480 kts 171°
2026-04-20 19:03 32.12642 130.41710 33018 ft 481 kts 171°
2026-04-20 19:04 32.06309 130.44184 33025 ft 481 kts 171°
2026-04-20 19:04 31.99938 130.46659 33029 ft 481 kts 171°
2026-04-20 19:05 31.93563 130.49123 33004 ft 482 kts 171°
2026-04-20 19:05 31.87207 130.51563 33016 ft 483 kts 171°
2026-04-20 19:06 31.80803 130.54031 33022 ft 483 kts 171°
2026-04-20 19:06 31.74419 130.56489 33020 ft 483 kts 171°
2026-04-20 19:07 31.69091 130.58543 32988 ft 484 kts 171°
2026-04-20 19:07 31.62677 130.60981 32998 ft 484 kts 171°
2026-04-20 19:08 31.53019 130.64585 33015 ft 485 kts 171°
2026-04-20 19:09 31.46629 130.66989 33015 ft 485 kts 171°
2026-04-20 19:09 31.40182 130.69409 33024 ft 485 kts 171°
2026-04-20 19:10 31.33788 130.71810 33022 ft 485 kts 171°
2026-04-20 19:10 31.27350 130.74229 33020 ft 485 kts 171°
2026-04-20 19:11 31.20943 130.76620 33004 ft 485 kts 171°
2026-04-20 19:11 31.14504 130.79022 33018 ft 485 kts 171°
2026-04-20 19:12 31.08056 130.81419 33017 ft 485 kts 171°
2026-04-20 19:12 31.01663 130.83805 33019 ft 485 kts 171°
2026-04-20 19:13 30.95225 130.86195 32991 ft 485 kts 171°
2026-04-20 19:13 30.88784 130.88578 32996 ft 485 kts 171°
2026-04-20 19:14 30.82339 130.90967 33004 ft 486 kts 171°
2026-04-20 19:14 30.75924 130.93347 32999 ft 486 kts 171°
2026-04-20 19:15 30.69464 130.95739 32993 ft 486 kts 170°
2026-04-20 19:15 30.63057 130.98113 33006 ft 487 kts 169°
2026-04-20 19:16 30.56897 131.01635 33009 ft 503 kts 153°
2026-04-20 19:16 30.51036 131.06088 33011 ft 503 kts 154°
2026-04-20 19:17 30.45160 131.10537 33012 ft 503 kts 154°
2026-04-20 19:17 30.39289 131.14963 32988 ft 503 kts 153°
2026-04-20 19:18 30.33456 131.19355 32997 ft 503 kts 153°
2026-04-20 19:18 30.27584 131.23773 33006 ft 503 kts 153°
2026-04-20 19:19 30.21735 131.28157 33020 ft 503 kts 153°
2026-04-20 19:19 30.15853 131.32553 33018 ft 503 kts 154°
2026-04-20 19:20 30.09972 131.36937 33007 ft 502 kts 153°
2026-04-20 19:20 30.04137 131.41287 33013 ft 502 kts 153°
2026-04-20 19:21 29.98269 131.45668 33015 ft 502 kts 153°
2026-04-20 19:21 29.92401 131.50049 33016 ft 502 kts 153°
2026-04-20 19:22 29.86515 131.54419 33017 ft 502 kts 153°
2026-04-20 19:22 29.80686 131.58737 33000 ft 502 kts 153°
2026-04-20 19:23 29.74805 131.63104 33016 ft 501 kts 153°
2026-04-20 19:23 29.68935 131.67462 33021 ft 501 kts 153°
2026-04-20 19:24 29.63102 131.71775 33021 ft 501 kts 153°
2026-04-20 19:24 29.57244 131.76137 33021 ft 502 kts 152°
2026-04-20 19:25 29.51558 131.80768 32999 ft 504 kts 149°
2026-04-20 19:25 29.45942 131.85575 33008 ft 504 kts 149°
2026-04-20 19:26 29.40295 131.90338 33011 ft 503 kts 149°
2026-04-20 19:26 29.34600 131.95029 33012 ft 502 kts 150°
2026-04-20 19:27 29.28948 131.99664 33010 ft 502 kts 150°
2026-04-20 19:27 29.23260 132.04346 33014 ft 502 kts 150°
2026-04-20 19:28 29.17598 132.09010 33003 ft 501 kts 149°
2026-04-20 19:28 29.11963 132.13641 33007 ft 501 kts 149°
2026-04-20 19:29 29.06288 132.18291 33010 ft 501 kts 149°
2026-04-20 19:29 29.00618 132.22934 33008 ft 500 kts 150°
2026-04-20 19:30 28.94949 132.27561 33013 ft 500 kts 150°
2026-04-20 19:30 28.89318 132.32148 33002 ft 500 kts 150°
2026-04-20 19:31 28.83657 132.36769 32999 ft 500 kts 149°
2026-04-20 19:31 28.77993 132.41403 32999 ft 499 kts 149°
2026-04-20 19:32 28.72372 132.45978 33001 ft 499 kts 150°
2026-04-20 19:32 28.66701 132.50573 33006 ft 499 kts 150°
2026-04-20 19:33 28.61044 132.55160 33007 ft 498 kts 150°
2026-04-20 19:33 28.55423 132.59707 33006 ft 498 kts 150°
2026-04-20 19:34 28.49768 132.64285 33002 ft 498 kts 150°
2026-04-20 19:34 28.44116 132.68857 33006 ft 498 kts 150°
2026-04-20 19:35 28.38488 132.73391 33006 ft 498 kts 150°
2026-04-20 19:35 28.32831 132.77940 33006 ft 498 kts 150°
2026-04-20 19:36 28.27176 132.82485 32985 ft 497 kts 150°
2026-04-20 19:36 28.21559 132.86992 32995 ft 497 kts 150°
2026-04-20 19:37 28.15918 132.91520 33000 ft 497 kts 150°
2026-04-20 19:37 28.10248 132.96066 33000 ft 497 kts 150°
2026-04-20 19:38 28.04628 133.00550 33000 ft 497 kts 150°
2026-04-20 19:38 27.98970 133.05057 33003 ft 497 kts 150°
2026-04-20 19:39 27.93315 133.09565 32995 ft 496 kts 150°
2026-04-20 19:39 27.87703 133.14141 33001 ft 499 kts 144°
2026-04-20 19:40 27.82562 133.19399 33005 ft 501 kts 142°
2026-04-20 19:40 27.77406 133.24720 33008 ft 501 kts 142°
2026-04-20 19:41 27.72241 133.30023 33012 ft 501 kts 142°
2026-04-20 19:41 27.67071 133.35316 33014 ft 501 kts 142°
2026-04-20 19:42 27.61940 133.40575 33010 ft 501 kts 142°
2026-04-20 19:42 27.56758 133.45864 33010 ft 501 kts 142°
2026-04-20 19:43 27.51584 133.51135 33008 ft 501 kts 142°
2026-04-20 19:43 27.46442 133.56384 33014 ft 501 kts 142°
2026-04-20 19:44 27.41269 133.61648 33015 ft 501 kts 142°
2026-04-20 19:44 27.36123 133.66865 33017 ft 501 kts 142°
2026-04-20 19:45 27.30945 133.72123 33018 ft 501 kts 142°
2026-04-20 19:45 27.25767 133.77382 33020 ft 501 kts 142°
2026-04-20 19:46 27.20588 133.82635 33010 ft 501 kts 142°
2026-04-20 19:46 27.15427 133.87853 33011 ft 501 kts 142°
2026-04-20 19:47 27.10233 133.93095 33018 ft 501 kts 142°
2026-04-20 19:47 27.05036 133.98335 33023 ft 502 kts 142°
2026-04-20 19:48 26.99861 134.03546 33023 ft 502 kts 142°
2026-04-20 19:48 26.94654 134.08781 33021 ft 502 kts 142°
2026-04-20 19:49 26.89471 134.13989 33021 ft 502 kts 142°
2026-04-20 19:49 26.84255 134.19235 33027 ft 503 kts 142°
2026-04-20 19:50 26.79065 134.24436 33020 ft 503 kts 142°
2026-04-20 19:50 26.73839 134.29655 33028 ft 503 kts 142°
2026-04-20 19:51 26.68614 134.34873 33028 ft 503 kts 142°
2026-04-20 19:51 26.63395 134.40096 33026 ft 503 kts 142°
2026-04-20 19:52 26.58201 134.45290 33029 ft 503 kts 142°
2026-04-20 19:52 26.52969 134.50497 33017 ft 503 kts 142°
2026-04-20 19:53 26.47738 134.55698 33032 ft 503 kts 141°
2026-04-20 19:53 26.42515 134.60879 33037 ft 502 kts 142°
2026-04-20 19:54 26.37314 134.66037 33036 ft 502 kts 141°
2026-04-20 19:54 26.32076 134.71219 33031 ft 502 kts 141°
2026-04-20 19:55 26.26881 134.76364 33034 ft 502 kts 141°
2026-04-20 19:55 26.21654 134.81529 33026 ft 501 kts 141°
2026-04-20 19:56 26.17304 134.85823 33018 ft 501 kts 141°
2026-04-20 19:56 26.11237 134.91801 33031 ft 501 kts 141°
2026-04-20 19:57 26.06022 134.96950 33029 ft 500 kts 141°
2026-04-20 19:57 26.00808 135.02095 33023 ft 500 kts 141°
2026-04-20 19:58 25.95615 135.07187 33018 ft 501 kts 141°
2026-04-20 19:58 25.90380 135.12309 33020 ft 501 kts 141°
2026-04-20 19:59 25.85155 135.17423 33024 ft 501 kts 141°
2026-04-20 19:59 25.79926 135.22549 33027 ft 501 kts 141°
2026-04-20 20:00 25.74730 135.27636 33022 ft 501 kts 141°
2026-04-20 20:00 25.69495 135.32734 33027 ft 501 kts 141°
2026-04-20 20:01 25.64249 135.37840 33031 ft 501 kts 141°
2026-04-20 20:01 25.59891 135.42097 33029 ft 501 kts 141°
2026-04-20 20:02 25.53789 135.48034 33028 ft 502 kts 141°
2026-04-20 20:02 25.49425 135.52270 33028 ft 502 kts 141°
2026-04-20 20:03 25.44162 135.57375 33018 ft 501 kts 141°
2026-04-20 20:03 25.38897 135.62476 33023 ft 502 kts 141°
2026-04-20 20:04 25.33644 135.67576 33022 ft 502 kts 141°
2026-04-20 20:04 25.28414 135.72636 33005 ft 502 kts 141°
2026-04-20 20:05 25.23140 135.77712 33024 ft 502 kts 141°
2026-04-20 20:05 25.17897 135.82763 33024 ft 502 kts 141°
2026-04-20 20:06 25.12630 135.87840 33003 ft 502 kts 141°
2026-04-20 20:06 25.07367 135.92920 33021 ft 502 kts 141°
2026-04-20 20:07 25.02101 135.97987 33034 ft 502 kts 141°
2026-04-20 20:07 24.96752 136.02930 33028 ft 501 kts 144°
2026-04-20 20:08 24.91221 136.07533 33028 ft 500 kts 146°
2026-04-20 20:08 24.85608 136.12069 33031 ft 500 kts 146°
2026-04-20 20:09 24.80040 136.16667 33028 ft 500 kts 145°
2026-04-20 20:09 24.74528 136.21288 33024 ft 500 kts 144°
2026-04-20 20:10 24.68989 136.25935 33030 ft 500 kts 145°
2026-04-20 20:10 24.63470 136.30547 33032 ft 500 kts 145°
2026-04-20 20:11 24.57915 136.35168 33026 ft 500 kts 145°
2026-04-20 20:11 24.52347 136.39787 33030 ft 500 kts 145°
2026-04-20 20:12 24.46790 136.44402 33028 ft 500 kts 145°
2026-04-20 20:12 24.41276 136.48993 33020 ft 500 kts 145°
2026-04-20 20:13 24.32938 136.55892 33023 ft 500 kts 145°
2026-04-20 20:13 24.27384 136.60485 33026 ft 499 kts 145°
2026-04-20 20:14 24.21853 136.65049 33013 ft 500 kts 145°
2026-04-20 20:14 24.16292 136.69633 33016 ft 500 kts 145°
2026-04-20 20:15 24.10756 136.74195 33018 ft 500 kts 145°
2026-04-20 20:15 24.05175 136.78787 33015 ft 501 kts 145°
2026-04-20 20:16 23.99628 136.83359 33014 ft 502 kts 145°
2026-04-20 20:16 23.94042 136.87955 33019 ft 502 kts 145°
2026-04-20 20:17 23.88439 136.92557 33020 ft 502 kts 145°
2026-04-20 20:17 23.82872 136.97105 33023 ft 502 kts 145°
2026-04-20 20:18 23.77302 137.01671 33030 ft 503 kts 145°
2026-04-20 20:18 23.71703 137.06261 33028 ft 503 kts 145°
2026-04-20 20:19 23.66087 137.10854 33020 ft 503 kts 146°
2026-04-20 20:19 23.60504 137.15403 33025 ft 504 kts 146°
2026-04-20 20:20 23.54879 137.19982 33028 ft 504 kts 146°
2026-04-20 20:20 23.49259 137.24568 33014 ft 504 kts 146°
2026-04-20 20:21 23.43667 137.29119 33019 ft 505 kts 146°
2026-04-20 20:21 23.38021 137.33705 33025 ft 505 kts 146°
2026-04-20 20:22 23.32391 137.38279 33011 ft 505 kts 146°
2026-04-20 20:22 23.26771 137.42834 33024 ft 506 kts 146°
2026-04-20 20:23 23.21115 137.47410 33026 ft 506 kts 146°
2026-04-20 20:23 23.15462 137.51990 33016 ft 506 kts 146°
2026-04-20 20:24 23.09803 137.56562 33020 ft 506 kts 146°
2026-04-20 20:24 23.04168 137.61106 33022 ft 506 kts 146°
2026-04-20 20:25 22.98503 137.65676 33025 ft 507 kts 146°
2026-04-20 20:25 22.92875 137.70218 33013 ft 507 kts 146°
2026-04-20 20:26 22.87198 137.74781 33022 ft 507 kts 146°
2026-04-20 20:26 22.81522 137.79345 33026 ft 507 kts 146°
2026-04-20 20:27 22.75837 137.83917 33012 ft 507 kts 146°
2026-04-20 20:27 22.70206 137.88437 33017 ft 507 kts 147°
2026-04-20 20:28 22.64524 137.92984 33018 ft 507 kts 147°
2026-04-20 20:28 22.58870 137.97507 33019 ft 507 kts 147°
2026-04-20 20:29 22.53185 138.02050 33021 ft 507 kts 147°
2026-04-20 20:29 22.47508 138.06590 33024 ft 508 kts 147°
2026-04-20 20:30 22.41803 138.11141 33027 ft 508 kts 147°
2026-04-20 20:30 22.36143 138.15660 33025 ft 509 kts 147°
2026-04-20 20:31 22.30436 138.20202 33031 ft 509 kts 147°
2026-04-20 20:31 22.24755 138.24712 33040 ft 509 kts 147°
2026-04-20 20:32 22.19054 138.29256 33013 ft 509 kts 147°
2026-04-20 20:32 22.13350 138.33791 33014 ft 509 kts 147°
2026-04-20 20:33 22.07667 138.38294 33029 ft 509 kts 147°
2026-04-20 20:33 22.01960 138.42810 33028 ft 509 kts 147°
2026-04-20 20:34 21.96246 138.47340 33038 ft 509 kts 147°
2026-04-20 20:34 21.90531 138.51862 33027 ft 509 kts 147°
2026-04-20 20:35 21.84846 138.56353 33027 ft 509 kts 147°
2026-04-20 20:35 21.79136 138.60862 33014 ft 508 kts 147°
2026-04-20 20:36 21.73439 138.65363 33028 ft 508 kts 147°
2026-04-20 20:36 21.67712 138.69861 33022 ft 508 kts 147°
2026-04-20 20:37 21.62031 138.74319 33017 ft 508 kts 147°
2026-04-20 20:37 21.56315 138.78814 33008 ft 508 kts 147°
2026-04-20 20:38 21.50602 138.83313 33012 ft 509 kts 147°
2026-04-20 20:38 21.44920 138.87773 33014 ft 509 kts 147°
2026-04-20 20:39 21.39193 138.92256 32999 ft 509 kts 147°
2026-04-20 20:39 21.33472 138.96722 33011 ft 509 kts 147°
2026-04-20 20:40 21.27749 139.01205 33018 ft 509 kts 147°
2026-04-20 20:40 21.22057 139.05670 33020 ft 509 kts 147°
2026-04-20 20:41 21.16313 139.10141 33017 ft 509 kts 147°
2026-04-20 20:41 21.10579 139.14600 33018 ft 509 kts 147°
2026-04-20 20:42 21.04851 139.19066 33019 ft 509 kts 147°
2026-04-20 20:42 20.99161 139.23499 33002 ft 508 kts 147°
2026-04-20 20:43 20.93434 139.27951 33010 ft 508 kts 147°
2026-04-20 20:43 20.87699 139.32398 33013 ft 507 kts 147°
2026-04-20 20:44 20.82004 139.36810 33015 ft 507 kts 147°
2026-04-20 20:44 20.76286 139.41243 33007 ft 507 kts 147°
2026-04-20 20:45 20.70616 139.45644 33011 ft 506 kts 147°
2026-04-20 20:45 20.64911 139.50070 33009 ft 506 kts 147°
2026-04-20 20:46 20.59193 139.54488 33012 ft 506 kts 148°
2026-04-20 20:46 20.53520 139.58857 33004 ft 505 kts 148°
2026-04-20 20:47 20.47820 139.63263 33006 ft 505 kts 148°
2026-04-20 20:47 20.42117 139.67656 33010 ft 505 kts 148°
2026-04-20 20:48 20.36443 139.72026 33005 ft 505 kts 148°
2026-04-20 20:48 20.30741 139.76414 33003 ft 505 kts 148°
2026-04-20 20:49 20.25997 139.80060 33004 ft 504 kts 148°
2026-04-20 20:49 20.19376 139.85146 33009 ft 505 kts 148°
2026-04-20 20:50 20.14593 139.88817 32998 ft 505 kts 147°
2026-04-20 20:50 20.08940 139.93154 33010 ft 504 kts 148°
2026-04-20 20:51 20.03238 139.97522 33011 ft 504 kts 148°
2026-04-20 20:51 19.97362 140.01552 33012 ft 500 kts 155°
2026-04-20 20:52 19.91292 140.05082 33007 ft 500 kts 155°
2026-04-20 20:52 19.85171 140.08646 33004 ft 500 kts 155°
2026-04-20 20:53 19.79073 140.12202 33007 ft 500 kts 155°
2026-04-20 20:53 19.73003 140.15747 32998 ft 500 kts 155°
2026-04-20 20:54 19.66889 140.19304 33009 ft 499 kts 155°
2026-04-20 20:54 19.60817 140.22828 33011 ft 499 kts 155°
2026-04-20 20:55 19.54725 140.26359 33012 ft 499 kts 155°
2026-04-20 20:55 19.48617 140.29908 32998 ft 499 kts 154°
2026-04-20 20:56 19.42522 140.33449 33007 ft 499 kts 155°
2026-04-20 20:56 19.36466 140.36956 33009 ft 499 kts 155°
2026-04-20 20:57 19.30372 140.40481 33011 ft 498 kts 155°
2026-04-20 20:57 19.24277 140.43998 33002 ft 498 kts 154°
2026-04-20 20:58 19.18230 140.47489 33009 ft 498 kts 154°
2026-04-20 20:58 19.12136 140.51004 33010 ft 497 kts 154°
2026-04-20 20:59 19.06053 140.54508 33010 ft 497 kts 154°
2026-04-20 20:59 18.99985 140.58007 33008 ft 497 kts 154°
2026-04-20 21:00 18.93941 140.61492 33008 ft 497 kts 154°
2026-04-20 21:00 18.87865 140.64984 33010 ft 496 kts 154°
2026-04-20 21:01 18.81795 140.68484 33010 ft 496 kts 154°
2026-04-20 21:01 18.75761 140.71944 33004 ft 496 kts 154°
2026-04-20 21:02 18.69685 140.75419 33003 ft 496 kts 154°
2026-04-20 21:02 18.63614 140.78899 33005 ft 496 kts 154°
2026-04-20 21:03 18.57577 140.82371 33003 ft 496 kts 154°
2026-04-20 21:03 18.51506 140.85848 33000 ft 496 kts 154°
2026-04-20 21:04 18.45432 140.89322 33004 ft 496 kts 154°
2026-04-20 21:04 18.39383 140.92774 33007 ft 496 kts 154°
2026-04-20 21:05 18.33302 140.96242 33003 ft 496 kts 154°
2026-04-20 21:05 18.27225 140.99709 33008 ft 496 kts 154°
2026-04-20 21:06 18.21193 141.03156 33008 ft 496 kts 154°
2026-04-20 21:06 18.15120 141.06621 33010 ft 496 kts 154°
2026-04-20 21:07 18.09045 141.10073 33005 ft 495 kts 154°
2026-04-20 21:07 18.03008 141.13507 33003 ft 495 kts 154°
2026-04-20 21:08 17.96955 141.16951 33005 ft 495 kts 154°
2026-04-20 21:08 17.90889 141.20389 33005 ft 495 kts 154°
2026-04-20 21:09 17.84823 141.23826 32999 ft 495 kts 154°
2026-04-20 21:09 17.78798 141.27239 33001 ft 495 kts 153°
2026-04-20 21:10 17.72735 141.30681 33001 ft 495 kts 154°
2026-04-20 21:10 17.66667 141.34116 33001 ft 495 kts 154°
2026-04-20 21:11 17.60598 141.37545 32999 ft 495 kts 153°
2026-04-20 21:11 17.54560 141.40958 33001 ft 495 kts 153°
2026-04-20 21:12 17.48521 141.44369 33004 ft 495 kts 153°
2026-04-20 21:12 17.42444 141.47800 33003 ft 495 kts 154°
2026-04-20 21:13 17.36378 141.51221 32995 ft 495 kts 153°
2026-04-20 21:13 17.30334 141.54626 32992 ft 495 kts 153°
2026-04-20 21:14 17.24267 141.58041 32989 ft 495 kts 153°
2026-04-20 21:14 17.18198 141.61463 32989 ft 495 kts 153°
2026-04-20 21:15 17.12131 141.64880 32984 ft 495 kts 153°
2026-04-20 21:15 17.06054 141.68287 32986 ft 495 kts 153°
2026-04-20 21:16 17.00006 141.71677 32991 ft 496 kts 153°
2026-04-20 21:16 16.93921 141.75097 32996 ft 496 kts 153°
2026-04-20 21:17 16.87855 141.78497 32995 ft 496 kts 153°
2026-04-20 21:17 16.81747 141.81912 33003 ft 497 kts 153°
2026-04-20 21:18 16.75648 141.85320 33003 ft 497 kts 153°
2026-04-20 21:18 16.69551 141.88734 33004 ft 497 kts 153°
2026-04-20 21:19 16.63454 141.92140 33003 ft 497 kts 153°
2026-04-20 21:20 16.54863 141.98141 33005 ft 498 kts 139°
2026-04-20 21:20 16.49672 142.02882 33006 ft 498 kts 139°
2026-04-20 21:21 16.44443 142.07631 33005 ft 498 kts 140°
2026-04-20 21:21 16.39205 142.12380 33010 ft 498 kts 139°
2026-04-20 21:22 16.34007 142.17085 33010 ft 498 kts 139°
2026-04-20 21:22 16.28773 142.21826 33007 ft 497 kts 139°
2026-04-20 21:23 16.23538 142.26557 33010 ft 497 kts 139°
2026-04-20 21:23 16.18316 142.31285 33010 ft 497 kts 139°
2026-04-20 21:24 16.13138 142.35974 33013 ft 496 kts 139°
2026-04-20 21:24 16.07917 142.40680 33013 ft 496 kts 139°
2026-04-20 21:25 16.02692 142.45391 33009 ft 496 kts 139°
2026-04-20 21:25 15.97483 142.50094 33010 ft 495 kts 139°
2026-04-20 21:26 15.92305 142.54762 33007 ft 495 kts 139°
2026-04-20 21:26 15.87107 142.59447 33008 ft 494 kts 139°
2026-04-20 21:27 15.81913 142.64125 33003 ft 493 kts 139°
2026-04-20 21:27 15.76714 142.68789 33003 ft 493 kts 139°
2026-04-20 21:28 15.71553 142.73425 33005 ft 493 kts 139°
2026-04-20 21:28 15.66368 142.78098 33007 ft 493 kts 139°
2026-04-20 21:29 15.61173 142.82755 33004 ft 493 kts 139°
2026-04-20 21:29 15.55980 142.87405 33003 ft 493 kts 139°
2026-04-20 21:30 15.50825 142.92026 33000 ft 493 kts 139°
2026-04-20 21:30 15.45637 142.96679 32996 ft 492 kts 139°
2026-04-20 21:31 15.40452 143.01320 33004 ft 492 kts 139°
2026-04-20 21:31 15.35274 143.05953 33004 ft 491 kts 139°
2026-04-20 21:32 15.30093 143.10578 32999 ft 491 kts 139°
2026-04-20 21:32 15.24913 143.15201 33000 ft 490 kts 139°
2026-04-20 21:33 15.19781 143.19794 32997 ft 490 kts 139°
2026-04-20 21:33 15.14608 143.24410 32996 ft 490 kts 139°
2026-04-20 21:34 15.09426 143.29016 32996 ft 490 kts 139°
2026-04-20 21:34 15.04249 143.33633 32998 ft 490 kts 139°
2026-04-20 21:35 14.99114 143.38210 32999 ft 490 kts 139°
2026-04-20 21:35 14.93933 143.42819 33004 ft 490 kts 139°
2026-04-20 21:36 14.88766 143.47409 33008 ft 489 kts 139°
2026-04-20 21:36 14.83598 143.51995 33005 ft 489 kts 139°
2026-04-20 21:37 14.78465 143.56560 33003 ft 489 kts 139°
2026-04-20 21:37 14.74171 143.60375 33001 ft 489 kts 139°
2026-04-20 21:38 14.69096 143.65057 33002 ft 487 kts 130°
2026-04-20 21:38 14.64742 143.70415 33004 ft 486 kts 129°
2026-04-20 21:39 14.60410 143.75779 33005 ft 486 kts 129°
2026-04-20 21:39 14.56098 143.81104 33008 ft 486 kts 129°
2026-04-20 21:40 14.51769 143.86461 32914 ft 483 kts 129°
2026-04-20 21:40 14.49630 143.89105 31616 ft 479 kts 129°
2026-04-20 21:40 14.47470 143.91774 29811 ft 488 kts 129°
2026-04-20 21:40 14.45280 143.94477 28639 ft 493 kts 129°
2026-04-20 21:41 14.43090 143.97181 27875 ft 490 kts 129°
2026-04-20 21:41 14.40881 143.99904 26760 ft 497 kts 129°
2026-04-20 21:41 14.38641 144.02662 25638 ft 503 kts 130°
2026-04-20 21:41 14.36383 144.05443 24530 ft 509 kts 130°
2026-04-20 21:42 14.34135 144.08215 23565 ft 509 kts 130°
2026-04-20 21:42 14.31887 144.10989 22537 ft 499 kts 130°
2026-04-20 21:42 14.29688 144.13703 21733 ft 486 kts 130°
2026-04-20 21:42 14.27535 144.16352 21121 ft 479 kts 130°
2026-04-20 21:43 14.25395 144.18978 20080 ft 478 kts 130°
2026-04-20 21:43 14.23257 144.21603 19290 ft 475 kts 131°
2026-04-20 21:43 14.21141 144.24203 18634 ft 470 kts 130°
2026-04-20 21:43 14.19092 144.26723 17868 ft 459 kts 131°
2026-04-20 21:44 14.17051 144.29234 16875 ft 451 kts 130°
2026-04-20 21:44 14.15064 144.31677 16145 ft 437 kts 131°
2026-04-20 21:44 14.13134 144.34049 15425 ft 426 kts 131°
2026-04-20 21:44 14.11242 144.36367 14739 ft 420 kts 130°
2026-04-20 21:45 14.09364 144.38667 14069 ft 419 kts 131°
2026-04-20 21:45 14.07340 144.40821 13372 ft 417 kts 140°
2026-04-20 21:45 14.04994 144.42541 12763 ft 412 kts 151°
2026-04-20 21:45 14.02410 144.43784 12150 ft 406 kts 161°
2026-04-20 21:46 13.99733 144.44519 11567 ft 401 kts 169°
2026-04-20 21:46 13.97033 144.45080 11303 ft 388 kts 169°
2026-04-20 21:46 13.94440 144.45626 11178 ft 370 kts 169°
2026-04-20 21:46 13.91969 144.46149 11059 ft 354 kts 169°
2026-04-20 21:47 13.89603 144.46651 10940 ft 339 kts 169°
2026-04-20 21:47 13.87358 144.47127 10825 ft 326 kts 169°
2026-04-20 21:47 13.85177 144.47591 10706 ft 313 kts 169°
2026-04-20 21:47 13.83078 144.48037 10587 ft 302 kts 169°
2026-04-20 21:48 13.81047 144.48470 10357 ft 295 kts 169°
2026-04-20 21:48 13.79049 144.48897 10225 ft 292 kts 169°
2026-04-20 21:48 13.77070 144.49320 10094 ft 288 kts 169°
2026-04-20 21:48 13.75107 144.49753 9967 ft 288 kts 167°
2026-04-20 21:49 13.73219 144.50471 9574 ft 292 kts 153°
2026-04-20 21:49 13.71501 144.51605 9119 ft 294 kts 146°
2026-04-20 21:49 13.69833 144.52829 8750 ft 292 kts 146°
2026-04-20 21:49 13.68177 144.54037 8094 ft 297 kts 145°
2026-04-20 21:50 13.66502 144.55288 7481 ft 295 kts 143°
2026-04-20 21:50 13.64938 144.56634 6953 ft 292 kts 137°
2026-04-20 21:50 13.63496 144.58104 6394 ft 291 kts 135°
2026-04-20 21:50 13.62091 144.59589 5833 ft 288 kts 134°
2026-04-20 21:51 13.60721 144.61088 5285 ft 286 kts 132°
2026-04-20 21:51 13.59386 144.62601 4745 ft 284 kts 131°
2026-04-20 21:51 13.58088 144.64126 4195 ft 282 kts 130°
2026-04-20 21:51 13.56806 144.65646 3678 ft 280 kts 130°
2026-04-20 21:52 13.55473 144.67087 3236 ft 276 kts 136°
2026-04-20 21:52 13.53977 144.68297 2803 ft 271 kts 142°
2026-04-20 21:52 13.52522 144.69448 2364 ft 263 kts 139°
2026-04-20 21:52 13.51149 144.70574 1970 ft 238 kts 140°
2026-04-20 21:53 13.49873 144.71526 1997 ft 214 kts 140°
2026-04-20 21:53 13.48787 144.72430 1787 ft 186 kts 134°
2026-04-20 21:53 13.47991 144.73364 1535 ft 164 kts 126°
2026-04-20 21:53 13.47440 144.74328 1325 ft 153 kts 109°
2026-04-20 21:54 13.47116 144.75339 940 ft 146 kts 99°
2026-04-20 21:54 13.47082 144.76364 734 ft 143 kts 78°
2026-04-20 21:54 13.47399 144.77320 534 ft 142 kts 63°
2026-04-20 21:54 13.47823 144.78245 307 ft 144 kts 65°
2026-04-20 21:55 13.48216 144.79109 260 ft 120 kts 64°
2026-04-20 21:55 13.48519 144.79771 268 ft 85 kts 65°
2026-04-20 21:55 13.48695 144.80150 283 ft 35 kts 62°
2026-04-20 21:55 13.48846 144.80310 290 ft 26 kts 35°
2026-04-20 21:56 13.48983 144.80410 286 ft 23 kts 37°
2026-04-20 21:56 13.49065 144.80529 295 ft 16 kts 62°
2026-04-20 21:56 13.49134 144.80541 291 ft 9 kts 331°
2026-04-20 21:56 13.49161 144.80525 287 ft 0 kts 331°